Regional Weather Roundup
Issued by NWS

Home | Current Version | Previous Version | Graphics & Text | Print | Product List | Glossary On
Versions: 1 2 3 4 5 6 7 8 9 10 11 12 13 14 15 16 17 18 19 20 21 22 23 24 25 26 27 28 29 30 31 32 33 34 35 36 37 38 39 40 41 42 43 44 45 46 47 48 49 50
539
ASUS45 KBOI 010410
RWRID

IDAHO REGIONAL WEATHER ROUNDUP
NATIONAL WEATHER SERVICE BOISE ID
1000 PM MDT SAT APR 30 2016

NOTE: "FAIR" INDICATES FEW OR NO CLOUDS BELOW 12000 FEET
WITH NO SIGNIFICANT WEATHER AND/OR OBSTRUCTIONS TO VISIBILITY

IDZ012-014-010500-
SOUTHWEST IDAHO


CITY           SKY/WX    TMP DP  RH WIND       PRES   REMARKS
BOISE          CLOUDY    55  37  50 NW13      30.06R
CALDWELL       PTCLDY    53  37  54 W16       30.08R
MOUNTAIN HOME  CLOUDY    53  44  71 SW6       30.08R
$$

IDZ016-017-010500-
SOUTHCENTRAL IDAHO


CITY           SKY/WX    TMP DP  RH WIND       PRES   REMARKS
BURLEY         LGT RAIN  49  44  83 E8        30.09R
JEROME         CLOUDY    50  42  74 NE3       30.08R
TWIN FALLS     CLOUDY    49  41  74 SE7       30.08R
$$

IDZ019>023-010500-
SOUTHEAST IDAHO


CITY           SKY/WX    TMP DP  RH WIND       PRES   REMARKS
IDAHO FALLS    CLOUDY    50  31  48 N10       30.09R
POCATELLO      CLOUDY    50  41  71 E8        30.10R
REXBURG        CLOUDY    49  29  46 NE12G21   30.10R
$$

IDZ006-010-011-018-031-032-010500-
CENTRAL IDAHO MOUNTAINS


CITY           SKY/WX    TMP DP  RH WIND       PRES   REMARKS
MCCALL         MOCLDY    45  33  63 N14G23    30.14R
HAILEY         CLOUDY    45  37  76 W5        30.13R
STANLEY          N/A     43  26  51 N3        30.17R
SALMON         CLOUDY    46  39  76 CALM      30.21R
CHALLIS        CLOUDY    47  31  53 N8        30.17R
$$

IDZ002-004-006-007-026-010500-
NORTHERN IDAHO


CITY           SKY/WX    TMP DP  RH WIND       PRES   REMARKS
LEWISTON       CLEAR     56  45  66 CALM      30.22R
LOWELL           N/A     52  48  86 CALM      30.22R
COEUR D`ALENE  PTCLDY    50  43  76 CALM      30.23R
MULLAN PASS    CLOUDY    39  30  70 CALM      30.29R
$$




USA.gov is the U.S. government's official web portal to all federal, state and local government web resources and services.